| time (UTC) | temp F | wind direction | speed MPH | gust MPH | rain 1hr in | rain 24hr in | rain mn in | humidity % | barometer mb |
| 20260503173110 | 59 | 205 | 3.0 | 12.0 | 0.00 | 0.00 | 0.00 | 45 | 1016.9 |
| 20260503171559 | 59 | 171 | 5.0 | 15.0 | 0.00 | 0.00 | 0.00 | 45 | 1017.1 |
| 20260503081531 | 37 | 257 | 0.0 | 0.0 | 0.00 | 0.00 | 0.00 | 82 | 1018.2 |
| 20260503071522 | 36 | 333 | 0.0 | 1.0 | 0.00 | 0.00 | 0.00 | 89 | 1018.2 |
| 20260503054513 | 35 | 333 | 0.0 | 0.0 | 0.00 | 0.00 | 0.00 | 85 | 1018.6 |
| 20260503053009 | 36 | 333 | 0.0 | 0.0 | 0.00 | 0.00 | 0.00 | 84 | 1018.7 |
| 20260503051507 | 36 | 333 | 0.0 | 0.0 | 0.00 | 0.00 | 0.00 | 83 | 1018.7 |
| 20260503050012 | 37 | 333 | 0.0 | 0.0 | 0.00 | 0.00 | 0.00 | 82 | 1018.8 |
| 20260503044505 | 37 | 333 | 0.0 | 0.0 | 0.00 | 0.00 | 0.00 | 83 | 1018.8 |
| 20260503043007 | 37 | 333 | 0.0 | 0.0 | 0.00 | 0.00 | 0.00 | 82 | 1018.7 |
| 20260503041504 | 37 | 333 | 0.0 | 0.0 | 0.00 | 0.00 | 0.00 | 81 | 1018.6 |
| 20260503040121 | 37 | 333 | 0.0 | 0.0 | 0.00 | 0.00 | 0.00 | 81 | 1018.6 |
| 20260503034559 | 38 | 333 | 0.0 | 0.0 | 0.00 | 0.00 | 0.00 | 79 | 1018.7 |
| 20260503033100 | 38 | 333 | 0.0 | 0.0 | 0.00 | 0.00 | 0.00 | 77 | 1018.7 |
| 20260503031606 | 39 | 333 | 0.0 | 0.0 | 0.00 | 0.00 | 0.00 | 74 | 1018.8 |
| 20260503030057 | 40 | 333 | 0.0 | 0.0 | 0.00 | 0.00 | 0.00 | 74 | 1018.8 |
| 20260503024557 | 40 | 333 | 0.0 | 0.0 | 0.00 | 0.00 | 0.00 | 72 | 1018.9 |
| 20260503023057 | 41 | 333 | 0.0 | 0.0 | 0.00 | 0.00 | 0.00 | 71 | 1018.8 |
| 20260503021555 | 42 | 320 | 0.0 | 0.0 | 0.00 | 0.00 | 0.00 | 65 | 1018.6 |
| 20260503020055 | 43 | 320 | 0.0 | 0.0 | 0.00 | 0.00 | 0.00 | 66 | 1018.5 |
| 20260503014609 | 43 | 320 | 0.0 | 0.0 | 0.00 | 0.00 | 0.00 | 60 | 1018.4 |
| 20260503013054 | 45 | 320 | 0.0 | 0.0 | 0.00 | 0.00 | 0.00 | 61 | 1018.3 |
| 20260503011557 | 46 | 320 | 0.0 | 0.0 | 0.00 | 0.00 | 0.00 | 58 | 1018.3 |
| 20260503010053 | 47 | 320 | 0.0 | 1.0 | 0.00 | 0.00 | 0.00 | 58 | 1018.2 |
| 20260503004553 | 48 | 320 | 0.0 | 4.0 | 0.00 | 0.00 | 0.00 | 51 | 1018.1 |
| 20260503003052 | 49 | 322 | 1.0 | 4.0 | 0.00 | 0.00 | 0.00 | 51 | 1018.0 |
| 20260503001604 | 49 | 328 | 1.0 | 5.0 | 0.00 | 0.00 | 0.00 | 48 | 1017.9 |
| 20260503000051 | 49 | 298 | 1.0 | 5.0 | 0.00 | 0.00 | 0.00 | 47 | 1017.8 |
| 20260502234552 | 50 | 317 | 3.0 | 9.0 | 0.00 | 0.00 | 0.00 | 46 | 1017.7 |
| 20260502233052 | 51 | 304 | 2.0 | 8.0 | 0.00 | 0.00 | 0.00 | 46 | 1017.6 |
| 20260502231550 | 50 | 50 | 2.0 | 6.0 | 0.00 | 0.00 | 0.00 | 47 | 1017.8 |
| 20260502230048 | 51 | 290 | 3.0 | 10.0 | 0.00 | 0.00 | 0.00 | 46 | 1017.9 |
| 20260502224548 | 51 | 314 | 6.0 | 12.0 | 0.00 | 0.00 | 0.00 | 44 | 1017.8 |
| 20260502223048 | 51 | 50 | 6.0 | 14.0 | 0.00 | 0.00 | 0.00 | 46 | 1017.9 |
| 20260502221546 | 51 | 344 | 2.0 | 8.0 | 0.00 | 0.00 | 0.00 | 47 | 1017.8 |
| 20260502220046 | 52 | 355 | 3.0 | 9.0 | 0.00 | 0.00 | 0.00 | 48 | 1017.8 |
| 20260502214545 | 52 | 302 | 6.0 | 14.0 | 0.00 | 0.00 | 0.00 | 43 | 1017.9 |
| 20260502213044 | 53 | 21 | 5.0 | 11.0 | 0.00 | 0.00 | 0.00 | 46 | 1017.8 |
| 20260502211542 | 52 | 337 | 6.0 | 15.0 | 0.00 | 0.00 | 0.00 | 45 | 1017.7 |
| 20260502210049 | 51 | 33 | 3.0 | 10.0 | 0.00 | 0.00 | 0.00 | 47 | 1017.6 |
| 20260502204546 | 52 | 328 | 2.0 | 12.0 | 0.00 | 0.00 | 0.00 | 49 | 1017.7 |
| 20260502203040 | 51 | 5 | 2.0 | 14.0 | 0.00 | 0.00 | 0.00 | 50 | 1017.7 |
| 20260502201548 | 50 | 344 | 3.0 | 10.0 | 0.00 | 0.00 | 0.00 | 50 | 1017.9 |
| 20260502200039 | 50 | 329 | 3.0 | 10.0 | 0.00 | 0.00 | 0.00 | 49 | 1017.9 |
| 20260502194539 | 52 | 339 | 7.0 | 14.0 | 0.00 | 0.00 | 0.00 | 51 | 1018.0 |
| 20260502193039 | 52 | 315 | 3.0 | 11.0 | 0.00 | 0.00 | 0.00 | 49 | 1018.0 |
| 20260502191550 | 52 | 350 | 3.0 | 14.0 | 0.00 | 0.00 | 0.00 | 49 | 1018.2 |
| 20260502190040 | 52 | 355 | 4.0 | 13.0 | 0.00 | 0.00 | 0.00 | 51 | 1018.3 |
| 20260502184546 | 52 | 304 | 6.0 | 13.0 | 0.00 | 0.00 | 0.00 | 54 | 1018.4 |
| 20260502183047 | 51 | 329 | 3.0 | 9.0 | 0.00 | 0.00 | 0.00 | 53 | 1018.6 |
| 20260502181540 | 50 | 15 | 2.0 | 10.0 | 0.00 | 0.00 | 0.00 | 53 | 1018.7 |